Time,TemperatureF,DewpointF,PressureIn,WindDirection,WindDirectionDegrees,WindSpeedMPH,WindSpeedGustMPH,Humidity,HourlyPrecipIn,Conditions,Clouds,dailyrainin,SolarRadiationWatts/m^2,SoftwareType,DateUTC
2014-01-21 00:02:00,4.0,-3.0,-100.00,WNW,299,5.0,18.0,71,0.00,,,0.00,0.000000,,2014-01-21 05:02:00,
2014-01-21 00:42:00,4.0,-3.0,-100.00,WNW,299,5.0,18.0,71,0.00,,,0.00,0.000000,,2014-01-21 05:42:00,
2014-01-21 00:52:00,4.0,-3.0,-100.00,WNW,299,5.0,18.0,71,0.00,,,0.00,0.000000,,2014-01-21 05:52:00,
2014-01-21 01:02:00,3.0,-5.0,-100.00,NW,307,5.0,19.0,69,0.00,,,0.00,0.000000,,2014-01-21 06:02:00,
2014-01-21 01:42:00,3.0,-5.0,-100.00,NW,307,5.0,19.0,69,0.00,,,0.00,0.000000,,2014-01-21 06:42:00,
2014-01-21 01:52:00,3.0,-5.0,-100.00,NW,307,5.0,19.0,69,0.00,,,0.00,0.000000,,2014-01-21 06:52:00,
2014-01-21 02:42:00,2.0,-7.0,-100.00,NNW,346,4.0,20.0,65,0.00,,,0.00,0.000000,,2014-01-21 07:42:00,
2014-01-21 02:53:00,2.0,-7.0,-100.00,NNW,346,4.0,20.0,65,0.00,,,0.00,0.000000,,2014-01-21 07:53:00,
2014-01-21 03:01:00,2.0,-7.0,-100.00,NNW,346,4.0,20.0,65,0.00,,,0.00,0.000000,,2014-01-21 08:01:00,
2014-01-21 03:02:00,0.0,-8.0,-100.00,West,278,5.0,17.0,68,0.00,,,-99.99,0.000000,,2014-01-21 08:02:00,
2014-01-21 03:42:00,0.0,-8.0,-100.00,West,278,5.0,17.0,68,0.00,,,-99.99,0.000000,,2014-01-21 08:42:00,
2014-01-21 03:52:00,0.0,-8.0,-100.00,West,278,5.0,17.0,68,0.00,,,-99.99,0.000000,,2014-01-21 08:52:00,
2014-01-21 04:02:00,-1.0,-10.0,-100.00,WNW,294,3.0,11.0,64,0.00,,,-99.99,0.000000,,2014-01-21 09:02:00,
2014-01-21 04:43:00,-1.0,-10.0,-100.00,WNW,294,3.0,11.0,64,0.00,,,-99.99,0.000000,,2014-01-21 09:43:00,
2014-01-21 04:53:00,-1.0,-10.0,-100.00,WNW,294,3.0,11.0,64,0.00,,,-99.99,0.000000,,2014-01-21 09:53:00,
2014-01-21 05:02:00,-1.0,-10.0,-100.00,NW,316,4.0,11.0,64,0.00,,,0.00,0.000000,,2014-01-21 10:02:00,
2014-01-21 05:42:00,-1.0,-10.0,-100.00,NW,316,4.0,11.0,64,0.00,,,0.00,0.000000,,2014-01-21 10:42:00,
2014-01-21 05:53:00,-1.0,-10.0,-100.00,NW,316,4.0,11.0,64,0.00,,,0.00,0.000000,,2014-01-21 10:53:00,
2014-01-21 06:02:00,-2.0,-11.0,-100.00,North,352,2.0,7.0,66,0.00,,,0.00,0.000000,,2014-01-21 11:02:00,
2014-01-21 06:42:00,-2.0,-11.0,-100.00,North,352,2.0,7.0,66,0.00,,,0.00,0.000000,,2014-01-21 11:42:00,
2014-01-21 06:52:00,-2.0,-11.0,-100.00,North,352,2.0,7.0,66,0.00,,,0.00,0.000000,,2014-01-21 11:52:00,
2014-01-21 07:02:00,-3.0,-12.0,-100.00,NW,310,1.0,7.0,64,0.00,,,0.00,0.000000,,2014-01-21 12:02:00,
2014-01-21 07:42:00,-3.0,-12.0,-100.00,NW,310,1.0,7.0,64,0.00,,,0.00,0.000000,,2014-01-21 12:42:00,
2014-01-21 07:52:00,-3.0,-12.0,-100.00,NW,310,1.0,7.0,64,0.00,,,0.00,0.000000,,2014-01-21 12:52:00,
2014-01-21 08:02:00,-2.0,-12.0,-100.00,ENE,77,1.0,5.0,61,0.00,,,0.00,7.000000,,2014-01-21 13:02:00,
2014-01-21 08:42:00,-2.0,-12.0,-100.00,ENE,77,1.0,5.0,61,0.00,,,0.00,7.000000,,2014-01-21 13:42:00,
2014-01-21 08:52:00,-2.0,-12.0,-100.00,ENE,77,1.0,5.0,61,0.00,,,0.00,7.000000,,2014-01-21 13:52:00,
2014-01-21 09:02:00,1.0,-14.0,-100.00,North,3,2.0,5.0,49,0.00,,,0.00,45.000000,,2014-01-21 14:02:00,
2014-01-21 09:42:00,1.0,-14.0,-100.00,North,3,2.0,5.0,49,0.00,,,0.00,45.000000,,2014-01-21 14:42:00,
2014-01-21 09:52:00,1.0,-14.0,-100.00,North,3,2.0,5.0,49,0.00,,,0.00,45.000000,,2014-01-21 14:52:00,
2014-01-21 10:02:00,3.0,-14.0,-100.00,NNE,33,2.0,6.0,43,0.00,,,0.00,69.000000,,2014-01-21 15:02:00,
2014-01-21 10:43:00,3.0,-14.0,-100.00,NNE,33,2.0,6.0,43,0.00,,,0.00,69.000000,,2014-01-21 15:43:00,
2014-01-21 10:53:00,3.0,-14.0,-100.00,NNE,33,2.0,6.0,43,0.00,,,0.00,69.000000,,2014-01-21 15:53:00,
2014-01-21 11:02:00,5.0,-12.0,-100.00,WNW,286,3.0,6.0,45,0.00,,,0.00,112.000000,,2014-01-21 16:02:00,
2014-01-21 11:43:00,5.0,-12.0,-100.00,WNW,286,3.0,6.0,45,0.00,,,0.00,112.000000,,2014-01-21 16:43:00,
2014-01-21 11:53:00,5.0,-12.0,-100.00,WNW,286,3.0,6.0,45,0.00,,,0.00,112.000000,,2014-01-21 16:53:00,
2014-01-21 12:02:00,4.0,-12.0,-100.00,West,262,4.0,8.0,47,0.00,,,0.00,146.000000,,2014-01-21 17:02:00,
2014-01-21 12:42:00,4.0,-12.0,-100.00,West,262,4.0,8.0,47,0.00,,,0.00,146.000000,,2014-01-21 17:42:00,
2014-01-21 12:53:00,4.0,-12.0,-100.00,West,262,4.0,8.0,47,0.00,,,0.00,146.000000,,2014-01-21 17:53:00,
2014-01-21 13:02:00,5.0,-9.0,-100.00,West,260,2.0,9.0,51,0.00,,,0.00,128.000000,,2014-01-21 18:02:00,
2014-01-21 13:42:00,5.0,-9.0,-100.00,West,260,2.0,9.0,51,0.00,,,0.00,128.000000,,2014-01-21 18:42:00,
2014-01-21 13:52:00,5.0,-9.0,-100.00,West,260,2.0,9.0,51,0.00,,,0.00,128.000000,,2014-01-21 18:52:00,
2014-01-21 14:02:00,5.0,-8.0,-100.00,West,266,2.0,5.0,54,0.00,,,0.00,89.000000,,2014-01-21 19:02:00,
2014-01-21 14:42:00,5.0,-8.0,-100.00,West,266,2.0,5.0,54,0.00,,,0.00,89.000000,,2014-01-21 19:42:00,
2014-01-21 14:52:00,5.0,-8.0,-100.00,West,266,2.0,5.0,54,0.00,,,0.00,89.000000,,2014-01-21 19:52:00,
2014-01-21 15:02:00,6.0,-7.0,-100.00,North,8,2.0,4.0,53,0.00,,,0.00,63.000000,,2014-01-21 20:02:00,
2014-01-21 15:22:00,6.0,-7.0,-100.00,North,8,2.0,4.0,53,0.00,,,0.00,63.000000,,2014-01-21 20:22:00,
2014-01-21 15:32:00,6.0,-7.0,-100.00,North,8,2.0,4.0,53,0.00,,,0.00,63.000000,,2014-01-21 20:32:00,
2014-01-21 15:42:00,6.0,-7.0,-100.00,North,8,2.0,4.0,53,0.00,,,0.00,63.000000,,2014-01-21 20:42:00,
2014-01-21 15:52:00,6.0,-7.0,-100.00,North,8,2.0,4.0,53,0.00,,,0.00,63.000000,,2014-01-21 20:52:00,
2014-01-21 16:02:00,4.0,-9.0,-100.00,NE,41,3.0,7.0,54,0.00,,,0.00,36.000000,,2014-01-21 21:02:00,
2014-01-21 16:22:00,4.0,-9.0,-100.00,NE,41,3.0,7.0,54,0.00,,,0.00,36.000000,,2014-01-21 21:22:00,
2014-01-21 16:33:00,4.0,-9.0,-100.00,NE,41,3.0,7.0,54,0.00,,,0.00,36.000000,,2014-01-21 21:33:00,
2014-01-21 16:43:00,4.0,-9.0,-100.00,NE,41,3.0,7.0,54,0.00,,,0.00,36.000000,,2014-01-21 21:43:00,
2014-01-21 16:53:00,4.0,-9.0,-100.00,NE,41,3.0,7.0,54,0.00,,,0.00,36.000000,,2014-01-21 21:53:00,
2014-01-21 17:02:00,2.0,-11.0,-100.00,NE,50,3.0,7.0,53,0.00,,,0.00,8.000000,,2014-01-21 22:02:00,
2014-01-21 17:43:00,2.0,-11.0,-100.00,NE,50,3.0,7.0,53,0.00,,,0.00,8.000000,,2014-01-21 22:43:00,
2014-01-21 17:53:00,2.0,-11.0,-100.00,NE,50,3.0,7.0,53,0.00,,,0.00,8.000000,,2014-01-21 22:53:00,
2014-01-21 18:02:00,1.0,-11.0,-100.00,NNE,30,3.0,5.0,57,0.00,,,0.00,0.000000,,2014-01-21 23:02:00,
2014-01-21 18:42:00,1.0,-11.0,-100.00,NNE,30,3.0,5.0,57,0.00,,,0.00,0.000000,,2014-01-21 23:42:00,
2014-01-21 18:52:00,1.0,-11.0,-100.00,NNE,30,3.0,5.0,57,0.00,,,0.00,0.000000,,2014-01-21 23:52:00,
2014-01-21 19:02:00,0.0,-11.0,-100.00,NNE,28,3.0,6.0,60,0.00,,,0.00,0.000000,,2014-01-22 00:02:00,
2014-01-21 19:22:00,0.0,-11.0,-100.00,NNE,28,3.0,6.0,60,0.00,,,0.00,0.000000,,2014-01-22 00:22:00,
2014-01-21 19:32:00,0.0,-11.0,-100.00,NNE,28,3.0,6.0,60,0.00,,,0.00,0.000000,,2014-01-22 00:32:00,
2014-01-21 19:42:00,0.0,-11.0,-100.00,NNE,28,3.0,6.0,60,0.00,,,0.00,0.000000,,2014-01-22 00:42:00,
2014-01-21 19:52:00,0.0,-11.0,-100.00,NNE,28,3.0,6.0,60,0.00,,,0.00,0.000000,,2014-01-22 00:52:00,
2014-01-21 20:42:00,0.0,-10.0,-100.00,NNE,33,3.0,6.0,63,0.00,,,0.00,0.000000,,2014-01-22 01:42:00,
2014-01-21 20:52:00,0.0,-10.0,-100.00,NNE,33,3.0,6.0,63,0.00,,,0.00,0.000000,,2014-01-22 01:52:00,
2014-01-21 21:02:00,-1.0,-11.0,-100.00,NNE,31,3.0,5.0,61,0.00,,,0.00,0.000000,,2014-01-22 02:02:00,
2014-01-21 21:42:00,-1.0,-11.0,-100.00,NNE,31,3.0,5.0,61,0.00,,,0.00,0.000000,,2014-01-22 02:42:00,
2014-01-21 21:52:00,-1.0,-11.0,-100.00,NNE,31,3.0,5.0,61,0.00,,,0.00,0.000000,,2014-01-22 02:52:00,
2014-01-21 22:02:00,-1.0,-13.0,-100.00,NNE,27,3.0,6.0,57,0.00,,,0.00,0.000000,,2014-01-22 03:02:00,
2014-01-21 22:43:00,-1.0,-13.0,-100.00,NNE,27,3.0,6.0,57,0.00,,,0.00,0.000000,,2014-01-22 03:43:00,
2014-01-21 22:54:00,-1.0,-13.0,-100.00,NNE,27,3.0,6.0,57,0.00,,,0.00,0.000000,,2014-01-22 03:54:00,
2014-01-21 23:02:00,-2.0,-13.0,-100.00,NNE,27,3.0,5.0,57,0.00,,,0.00,0.000000,,2014-01-22 04:02:00,
2014-01-21 23:43:00,-2.0,-13.0,-100.00,NNE,27,3.0,5.0,57,0.00,,,0.00,0.000000,,2014-01-22 04:43:00,
2014-01-21 23:53:00,-2.0,-13.0,-100.00,NNE,27,3.0,5.0,57,0.00,,,0.00,0.000000,,2014-01-22 04:53:00,